Regional Weather Roundup
Issued by NWS

Home | Current Version | Previous Version | Text Only | Print | Product List | Glossary On
Versions: 1 2 3 4 5 6 7 8 9 10 11 12 13 14 15 16 17 18 19 20 21 22 23 24 25 26 27 28 29 30 31 32 33 34 35 36 37 38 39 40 41 42 43 44 45 46 47 48 49 50
000
ASUS44 KJAN 010003
RWRMS

MISSISSIPPI HOURLY WEATHER ROUNDUP
NATIONAL WEATHER SERVICE JACKSON MS
700 PM CDT TUE SEP 30 2014

NOTE: "FAIR: INDICATES FEW OR NO CLOUDS BELOW 12,000 FEET WITH NO
SIGNIFICANT WEATHER AND/OR OBSTRUCTIONS TO VISIBILITY.

MSZ001>002-007>008-010>013-018>021-025>028-034>036-010100-
NORTHWEST MISSISSIPPI

CITY           SKY/WX    TMP DP  RH WIND       PRES   REMARKS
CLARKSDALE     MOCLDY    81  63  54 E3        29.86R
CLEVELAND      FAIR      80  62  54 CALM      29.84R
GREENWOOD      CLEAR     76  67  73 E3        29.85R
6HR MIN TEMP:  76; 6HR MAX TEMP:  89;

GREENVILLE     CLEAR     81  60  48 NW5       29.83S
6HR MIN TEMP:  81; 6HR MAX TEMP:  91;

GRENADA        FAIR      73  66  78 CALM      29.86S
OLIVE BRANCH   MOCLDY    77  66  69 CALM      29.88R
OXFORD         FAIR      73  68  83 CALM      29.89S
TUNICA         MOCLDY    77  61  57 NE3       29.86F
$$

MSZ003>006-009-014>017-022>024-029>033-037>039-010100-
NORTHEAST MISSISSIPPI

CITY           SKY/WX    TMP DP  RH WIND       PRES   REMARKS
COLUMBUS AFB   CLEAR     76  66  71 CALM      29.87S
6HR MIN TEMP:  75; 6HR MAX TEMP:  86;

CORINTH          N/A     73  66  78 CALM      29.88S
GOLDN TRIANGLE PTCLDY    81  61  50 E3        29.87S
STARKVILLE     FAIR      73  63  68 CALM      29.87S
TUPELO         PTCLDY    76  59  55 CALM      29.87S
6HR MIN TEMP:  76; 6HR MAX TEMP:  87;

$$

MSZ040-058-010100-
CENTRAL MISSISSIPPI

CITY           SKY/WX    TMP DP  RH WIND       PRES   REMARKS
JACKSON INTL   PTCLDY    79  66  64 E5        29.85S
6HR MIN TEMP:  79; 6HR MAX TEMP:  90;

JACKSON HAWKNS CLEAR     82  64  54 CALM      29.85S
6HR MIN TEMP:  82; 6HR MAX TEMP:  89;

MERIDIAN KEY   CLEAR     75  64  68 CALM      29.86S
6HR MIN TEMP:  75; 6HR MAX TEMP:  88;

MERIDIAN NAS   PTCLDY    77  60  55 CALM      29.87R
6HR MIN TEMP:  77; 6HR MAX TEMP:  90;

RAYMOND        FAIR      77  73  88 CALM      29.85R
VICKSBURG      CLEAR     75  67  76 CALM      29.83S
6HR MIN TEMP:  75; 6HR MAX TEMP:  90;

$$

MSZ059>079-010100-
SOUTH MISSISSIPPI

CITY           SKY/WX    TMP DP  RH WIND       PRES   REMARKS
BROOKHAVEN     FAIR      79  70  73 CALM      29.88
COLUMBIA       FAIR      77  72  83 CALM      29.85R
HATTIESBURG    CLEAR     78  70  76 CALM      29.86S
6HR MIN TEMP:  78; 6HR MAX TEMP:  85;

MCCOMB         PTCLDY    81  67  62 SE3       29.85R
6HR MIN TEMP:  81; 6HR MAX TEMP:  88;

NATCHEZ        CLEAR     79  70  73 CALM      29.84S
6HR MIN TEMP:  79; 6HR MAX TEMP:  88;

PINE BELT      CLEAR     75  66  73 CALM      29.88S
$$

MSZ080>082-010100-
COASTAL MISSISSIPPI

CITY           SKY/WX    TMP DP  RH WIND       PRES   REMARKS
BAY ST LOUIS   CLEAR     79  70  73 CALM      29.86R
BILOXI         CLEAR     79  71  78 SE6       29.86R
6HR MIN TEMP:  79; 6HR MAX TEMP:  85;

PASCAGOULA     CLEAR     74  70  87 CALM      29.86R
6HR MIN TEMP:  74; 6HR MAX TEMP:  85;

GULFPORT       PTCLDY    78  72  81 S3        29.86R
6HR MIN TEMP:  78; 6HR MAX TEMP:  83;

$$


USA.gov is the U.S. government's official web portal to all federal, state and local government web resources and services.